Flag for U.S.A. Weather past 2 weeks in Washington DC, District of Columbia, U.S.A.

Now
83 °F

High level clouds.


Feels Like: 88 °F
Forecast: 72 / 92 °F
Wind: 3 mph from Northeast

Location: Reagan National Airport

Current Time: Sep 2, 2015 at 10:58:30 AM

Latest Report: Sep 2, 2015 at 9:52 AM


Visibility: 8 mi

Pressure: 30.05 "Hg

Humidity: 68%

Dew point: 71 °F

Location of Washington DCLocation

Historic Weather in Washington DC — Graph

°F

Washington DC temperature yesterday

Maximum temperature yesterday: 95 °F (at 2:52 PM)
Minimum temperature yesterday: 72 °F (at 3:52 AM)
Average temperature yesterday: 82 °F

Past Weeks' High & Low Weather Summary

 TemperatureHumidityPressure
High95 °F (Sep 1, 2:52 PM)94% (Aug 20, 4:52 AM)30.22 "Hg (Aug 20, 4:52 AM)
Low63 °F (Aug 27, 5:52 AM)30% (Aug 22, 4:52 PM)29.81 "Hg (Aug 24, 5:52 PM)
Average78 °F64%30.03 "Hg
* Reported Aug 18 9:52 AM — Sep 2 9:52 AM, Washington DC, Weather by CustomWeather, © 2015

Note: Actual official high and low records may vary slightly from our data, if they occured in-between our weather recording intervals... More about our weather records

Advertising

Washington DC weather history for previous 24 hours

 ConditionsComfort  
Time TempWeatherWind HumidityBarometerVisibility
9:52 AM
Wed, Sep 2
83 °FHigh level clouds.3 mph68%30.05 "Hg8 mi
8:52 AM79 °FHigh level clouds.3 mph79%30.05 "Hg7 mi
7:52 AM77 °FOvercast.6 mph79%30.06 "Hg6 mi
6:52 AM76 °FOvercast.6 mph85%30.04 "Hg7 mi
5:52 AM76 °FMostly cloudy.No wind91%30.03 "Hg7 mi
4:52 AM77 °FOvercast.3 mph85%30.03 "Hg10 mi
3:52 AM78 °FPartly cloudy.No wind84%30.03 "Hg10 mi
2:52 AM79 °FPassing clouds.No wind79%30.03 "Hg10 mi
1:52 AM80 °FPartly cloudy.No wind79%30.04 "Hg10 mi
12:52 AM79 °FMostly cloudy.No wind82%30.05 "Hg10 mi
11:52 PM
Tue, Sep 1
80 °FPassing clouds.3 mph81%30.05 "Hg10 mi
10:52 PM80 °FPassing clouds.5 mph79%30.04 "Hg10 mi
9:52 PM80 °FPassing clouds.5 mph81%30.04 "Hg10 mi
8:52 PM82 °FPassing clouds.5 mph77%30.03 "Hg10 mi
7:52 PM85 °FPartly sunny.7 mph61%30.01 "Hg10 mi
6:52 PM87 °FPartly sunny.8 mph59%30.01 "Hg10 mi
4:52 PM94 °FScattered clouds.No wind37%30.00 "Hg10 mi
3:52 PM93 °FScattered clouds.3 mph41%30.01 "Hg10 mi
2:52 PM95 °FPartly sunny.7 mph37%30.03 "Hg10 mi
1:52 PM93 °FPartly sunny.3 mph41%30.05 "Hg10 mi
12:52 PM90 °FPartly sunny.No wind47%30.06 "Hg10 mi
11:52 AM91 °FScattered clouds.8 mph44%30.07 "Hg10 mi
10:52 AM88 °FPassing clouds.3 mph54%30.08 "Hg10 mi
Weather by CustomWeather, © 2015

See weather overviewHow to use our weather pages